Location: Davidschlag
(48.4333°N, 14.2833°E)
Time: 09:26:42
(UTC+00:00)

STARLINK-1058 - Pass Details

Date: 27 February 2020
Orbit: 548 x 551 km, 53.0° (Epoch: 28 March)

Event Time Altitude Azimuth Distance (km) Brightness Sun altitude
Rises 17:49:38 0° 229° (SW) 2,707 8.0 -11.9°
Reaches altitude 10° 17:51:53 10° 226° (SW) 1,817 6.9 -12.2°
Maximum altitude 17:55:57 58° 147° (SSE) 642 3.7 -12.9°
Enters shadow 17:58:36 20° 73° (ENE) 1,291 4.9 -13.4°
